Tracking 29892 objects as of 21-Nov-2024
HD Live streaming from Space Station
objects crossing your sky now

SL-16 DEB

Track SL-16 DEB now!
10-day predictions


NORAD ID: 22537
Int'l Code: 1992-093GX
Perigee: 783.5 km
Apogee: 936.2 km
Inclination: 71.2 °
Period: 102.0 minutes
Semi major axis: 7230 km
RCS: 0.0078 m2 (small)
Launch date: December 25, 1992
Source: Commonwealth of Independent States (former USSR) (CIS)
Launch site: TYURATAM MISSILE AND SPACE COMPLEX (TTMTR)

Note: This is SATELLITE DEBRIS
Your satellite tracking list
Your tracking list is empty




NASA's NSSDC Master Catalog

Two Line Element Set (TLE):
1 22537U 92093GX  24325.22299574  .00005633  00000-0  29431-2 0  9996
2 22537  71.1716  61.3730 0105575 221.9002 137.4007 14.11957602623327
Source of the keplerian elements: AFSPC